TimeEST,TemperatureF,Dew PointF,Humidity,Sea Level PressureIn,VisibilityMPH,Wind Direction,Wind SpeedMPH,Gust SpeedMPH,PrecipitationIn,Events,Conditions,WindDirDegrees,DateUTC
12:53 AM,72.0,64.9,78,29.97,10.0,SSE,3.5,-,N/A,,Partly Cloudy,160,2012-12-08 05:53:00
1:53 AM,69.1,64.9,87,29.97,10.0,Calm,Calm,-,N/A,,Clear,0,2012-12-08 06:53:00
2:53 AM,66.9,64.0,90,29.96,10.0,Calm,Calm,-,N/A,,Clear,0,2012-12-08 07:53:00
3:53 AM,66.9,64.0,90,29.96,10.0,Calm,Calm,-,N/A,,Clear,0,2012-12-08 08:53:00
4:53 AM,66.9,64.0,90,29.97,10.0,Calm,Calm,-,N/A,,Partly Cloudy,0,2012-12-08 09:53:00
5:53 AM,66.0,64.0,93,29.99,10.0,Calm,Calm,-,N/A,,Partly Cloudy,0,2012-12-08 10:53:00
6:53 AM,66.0,64.0,93,29.99,10.0,Calm,Calm,-,N/A,,Scattered Clouds,0,2012-12-08 11:53:00
7:53 AM,69.1,66.9,93,30.01,10.0,Calm,Calm,-,N/A,,Scattered Clouds,0,2012-12-08 12:53:00
8:53 AM,78.1,69.1,74,30.03,10.0,ESE,8.1,-,N/A,,Scattered Clouds,110,2012-12-08 13:53:00
9:53 AM,80.1,69.1,69,30.04,10.0,ESE,11.5,-,N/A,,Scattered Clouds,110,2012-12-08 14:53:00
10:53 AM,80.1,68.0,67,30.03,10.0,SE,11.5,-,N/A,,Mostly Cloudy,130,2012-12-08 15:53:00
11:53 AM,80.1,69.1,69,30.00,10.0,ESE,10.4,-,N/A,,Mostly Cloudy,110,2012-12-08 16:53:00
12:53 PM,82.0,68.0,62,29.98,10.0,ESE,12.7,-,N/A,,Mostly Cloudy,110,2012-12-08 17:53:00
1:53 PM,81.0,68.0,65,29.97,10.0,ESE,12.7,-,N/A,,Mostly Cloudy,110,2012-12-08 18:53:00
2:53 PM,80.1,69.1,69,29.96,10.0,ESE,13.8,-,N/A,,Mostly Cloudy,110,2012-12-08 19:53:00
3:53 PM,79.0,68.0,69,29.97,10.0,ESE,10.4,-,N/A,,Mostly Cloudy,120,2012-12-08 20:53:00
4:53 PM,78.1,68.0,71,29.97,10.0,SE,11.5,-,N/A,,Mostly Cloudy,130,2012-12-08 21:53:00
5:53 PM,75.9,69.1,79,29.99,10.0,SE,6.9,-,N/A,,Mostly Cloudy,130,2012-12-08 22:53:00
6:53 PM,75.9,69.1,79,30.01,10.0,SE,4.6,-,N/A,,Mostly Cloudy,140,2012-12-08 23:53:00
7:53 PM,77.0,69.1,76,30.01,10.0,SE,6.9,-,N/A,,Mostly Cloudy,130,2012-12-09 00:53:00
8:32 PM,77.0,69.8,78,30.03,10.0,ESE,6.9,-,N/A,,Mostly Cloudy,120,2012-12-09 01:32:00
8:49 PM,77.0,69.8,78,30.03,10.0,ESE,9.2,-,N/A,,Overcast,120,2012-12-09 01:49:00
8:53 PM,77.0,70.0,79,30.03,10.0,ESE,8.1,-,N/A,,Overcast,120,2012-12-09 01:53:00
9:53 PM,77.0,71.1,82,30.03,10.0,SE,9.2,-,N/A,,Overcast,130,2012-12-09 02:53:00
10:13 PM,77.0,71.6,83,30.03,10.0,SE,5.8,-,N/A,,Overcast,130,2012-12-09 03:13:00
10:48 PM,77.0,71.6,83,30.03,10.0,SE,11.5,-,0.03,,Mostly Cloudy,140,2012-12-09 03:48:00
10:53 PM,77.0,72.0,84,30.03,10.0,SE,10.4,-,0.03,,Mostly Cloudy,140,2012-12-09 03:53:00
11:53 PM,77.0,72.0,84,30.02,10.0,SSE,8.1,-,N/A,,Mostly Cloudy,150,2012-12-09 04:53:00